Fort Leonard Wood, MO

12:26 PM CDT on October 22, 2019 (GMT -0500)
Waynesville Regional At Forney Field

Weather History for KTBN - September, 2019

Change the Weather History Date:

Tuesday, September 17, 2019

  Actual Average Record
Temperature  
Mean Temperature 80 °F -  
Max Temperature 93 °F 76 °F 93 °F (2019)
Min Temperature 67 °F 58 °F 46 °F (1999)
Cooling Degree Days 14    
Growing Degree Days 30 (Base 50)    
Moisture  
Dew Point 65 °F    
Average Humidity 65    
Maximum Humidity 91    
Minimum Humidity 34    
Precipitation  
Precipitation 0.00 in - - ()
Sea Level Pressure  
Sea Level Pressure 30.03 in    
Wind  
Wind Speed 4 mph (SSE)    
Max Wind Speed 9 mph    
Max Gust Speed -    
Visibility 10 miles    
Events      
Averages and records for this station are not official NWS values.
T = Trace of Precipitation, MM = Missing Value Source: NWS Daily Summary

Daily Weather History Graph

Daily Weather History Graph

Search for Another Location

Airport or City:

Astronomy

Sep. 17, 2019 Rise Set
Actual Time 6:51 AM CDT 7:13 PM CDT
Civil Twilight 6:25 AM CDT 7:39 PM CDT
Nautical Twilight 5:54 AM CDT 8:10 PM CDT
Astronomical Twilight 5:23 AM CDT 8:41 PM CDT
Moon 9:20 PM CDT (9/17) 9:54 AM CDT (9/17)
Length of Visible Light 13h 14m
Length of Day
12h 21m
Waning Gibbous, 89% of the Moon is Illuminated
Sep 17
Waning Gibbous
Sep 21
Last Quarter
Sep 28
New
Oct 5
First Quarter
Oct 13
Full

Hourly Weather History & Observations

Time (CDT) Temp. Heat Index Dew Point Humidity Pressure Visibility Wind Dir Wind Speed Gust Speed Precip Events Conditions
12:56 AM 72.3 °F - 65.8 °F 80% 30.04 in 10.0 mi SE 4.6 mph - N/A   Clear
1:56 AM 70.5 °F - 65.8 °F 85% 30.04 in 10.0 mi SSE 3.5 mph - N/A   Clear
2:56 AM 70.7 °F - 65.3 °F 83% 30.04 in 10.0 mi Calm Calm - N/A   Clear
3:56 AM 69.1 °F - 64.9 °F 87% 30.04 in 10.0 mi SSE 4.6 mph - N/A   Clear
4:56 AM 68.5 °F - 64.4 °F 87% 30.04 in 10.0 mi SE 4.6 mph - N/A   Clear
6:56 AM 67.1 °F - 64.4 °F 91% 30.08 in 10.0 mi SSE 4.6 mph - N/A   Clear
7:56 AM 70.9 °F - 65.5 °F 83% 30.08 in 10.0 mi SE 3.5 mph - N/A   Clear
8:56 AM 74.3 °F - 66.6 °F 77% 30.09 in 10.0 mi Calm Calm - N/A   Clear
9:56 AM 83.1 °F 85.7 °F 66.7 °F 58% 30.09 in 10.0 mi SW 5.8 mph - N/A   Clear
10:56 AM 86.4 °F 89.4 °F 67.6 °F 53% 30.09 in 10.0 mi SW 4.6 mph - N/A   Clear
11:56 AM 90.9 °F 92.7 °F 64.6 °F 42% 30.07 in 10.0 mi SSW 4.6 mph - N/A   Clear
12:56 PM 92.1 °F 93.6 °F 64.2 °F 39% 30.06 in 10.0 mi South 9.2 mph - N/A   Partly Cloudy
1:56 PM 91.8 °F 93.0 °F 63.9 °F 39% 30.04 in 10.0 mi South 6.9 mph - N/A   Partly Cloudy
2:56 PM 92.1 °F 91.7 °F 59.7 °F 34% 30.01 in 10.0 mi ESE 4.6 mph - N/A   Clear
3:56 PM 92.7 °F 92.9 °F 61.0 °F 35% 30.00 in 10.0 mi Calm Calm - N/A   Clear
4:56 PM 92.1 °F 92.1 °F 60.4 °F 35% 29.99 in 10.0 mi South 4.6 mph - N/A   Clear
5:56 PM 90.3 °F 90.8 °F 62.6 °F 39% 29.99 in 10.0 mi SSW 3.5 mph - N/A   Clear
6:56 PM 84.6 °F 88.5 °F 69.1 °F 60% 29.99 in 10.0 mi Calm Calm - N/A   Clear
7:56 PM 76.1 °F - 69.1 °F 79% 29.99 in 10.0 mi Calm Calm - N/A   Clear
8:56 PM 77.2 °F - 66.9 °F 71% 30.01 in 10.0 mi ESE 3.5 mph - N/A   Clear
9:56 PM 74.8 °F - 66.0 °F 74% 30.01 in 10.0 mi SE 5.8 mph - N/A   Clear
10:56 PM 72.9 °F - 66.2 °F 80% 30.00 in 10.0 mi SE 6.9 mph - N/A   Clear
11:56 PM 73.0 °F - 66.0 °F 79% 30.00 in 10.0 mi East 4.6 mph - N/A   Clear